TimePDT,TemperatureF,Dew PointF,Humidity,Sea Level PressureIn,VisibilityMPH,Wind Direction,Wind SpeedMPH,Gust SpeedMPH,PrecipitationIn,Events,Conditions,WindDirDegrees,DateUTC
12:53 AM,60.1,54.0,80,30.14,10.0,Calm,Calm,-,N/A,,Clear,0,2012-10-13 07:53:00
1:53 AM,59.0,53.1,81,30.14,10.0,Calm,Calm,-,N/A,,Clear,0,2012-10-13 08:53:00
2:53 AM,57.9,53.1,84,30.13,10.0,Calm,Calm,-,N/A,,Clear,0,2012-10-13 09:53:00
3:53 AM,57.9,52.0,81,30.13,10.0,ENE,3.5,-,N/A,,Clear,70,2012-10-13 10:53:00
4:53 AM,57.0,52.0,83,30.14,10.0,NE,4.6,-,N/A,,Clear,50,2012-10-13 11:53:00
5:53 AM,57.9,52.0,81,30.14,10.0,ENE,3.5,-,N/A,,Clear,60,2012-10-13 12:53:00
6:53 AM,57.9,51.1,78,30.14,10.0,ENE,3.5,-,N/A,,Clear,60,2012-10-13 13:53:00
7:53 AM,60.1,53.1,78,30.16,10.0,Calm,Calm,-,N/A,,Clear,0,2012-10-13 14:53:00
8:53 AM,64.9,53.1,65,30.17,10.0,Calm,Calm,-,N/A,,Clear,0,2012-10-13 15:53:00
9:53 AM,66.0,53.1,63,30.17,10.0,Variable,3.5,-,N/A,,Clear,0,2012-10-13 16:53:00
10:53 AM,70.0,53.1,55,30.16,10.0,NNW,4.6,-,N/A,,Clear,340,2012-10-13 17:53:00
11:53 AM,70.0,54.0,57,30.14,10.0,West,6.9,-,N/A,,Clear,260,2012-10-13 18:53:00
12:53 PM,70.0,55.9,61,30.11,10.0,West,8.1,-,N/A,,Clear,280,2012-10-13 19:53:00
1:53 PM,70.0,57.9,65,30.07,10.0,West,8.1,16.1,N/A,,Clear,270,2012-10-13 20:53:00
2:53 PM,70.0,57.0,63,30.06,10.0,West,10.4,-,N/A,,Clear,260,2012-10-13 21:53:00
3:53 PM,71.1,57.9,63,30.04,10.0,West,6.9,-,N/A,,Clear,280,2012-10-13 22:53:00
4:53 PM,69.8,57.2,64,30.03,10.0,West,8.1,-,N/A,,Clear,280,2012-10-13 23:53:00
5:53 PM,68.0,57.9,70,30.03,10.0,West,5.8,-,N/A,,Clear,280,2012-10-14 00:53:00
6:53 PM,66.9,60.1,79,30.04,10.0,WNW,3.5,-,N/A,,Clear,300,2012-10-14 01:53:00
7:53 PM,66.9,60.1,79,30.05,10.0,Calm,Calm,-,N/A,,Clear,0,2012-10-14 02:53:00
8:53 PM,66.9,60.1,79,30.05,10.0,Calm,Calm,-,N/A,,Clear,0,2012-10-14 03:53:00
10:53 PM,64.9,59.0,81,30.04,10.0,Calm,Calm,-,N/A,,Clear,0,2012-10-14 05:53:00
11:53 PM,63.0,57.0,81,30.04,10.0,Calm,Calm,-,N/A,,Clear,0,2012-10-14 06:53:00